Santa Maria, CA

8:07 AM PDT on March 24, 2017 (GMT -0700)
Santa Maria Public Airport / Captain G. Allan Hancock Field

Weather History for KSMX - December, 2013

Change the Weather History Date:

Tuesday, December 3, 2013

  Actual Average Record
Temperature  
Mean Temperature 52 °F 52 °F  
Max Temperature 64 °F 65 °F 90 °F (1958)
Min Temperature 40 °F 40 °F 28 °F (1978)
Degree Days  
Heating Degree Days 13 13  
Month to date heating degree days 23 38  
Since 1 July heating degree days 405 684  
Cooling Degree Days 0 0  
Month to date cooling degree days 0 0  
Year to date cooling degree days 211 104  
Growing Degree Days 6 (Base 50)    
Moisture  
Dew Point 45 °F    
Average Humidity 74    
Maximum Humidity 96    
Minimum Humidity 52    
Precipitation  
Precipitation 0.00 in 0.05 in 2.91 in (1974)
Month to date precipitation 0.00 0.15  
Year to date precipitation 2.81 11.98  
Since 1 July precipitation 0.32  
Sea Level Pressure  
Sea Level Pressure 29.89 in    
Wind  
Wind Speed 10 mph (NNW)    
Max Wind Speed 29 mph    
Max Gust Speed 35 mph    
Visibility 7 miles    
Events Fog    
T = Trace of Precipitation, MM = Missing Value Source: NWS Daily Summary

Daily Weather History Graph

Daily Weather History Graph

Search for Another Location

Airport or City:

Trip Planner

Search our weather history database for the weather conditions in past years. The results will help you decide how hot, cold, wet, or windy it might be!

Date:

Astronomy

Dec. 03, 2013 Rise Set
Actual Time 6:53 AM PST 4:50 PM PST
Civil Twilight 6:25 AM PST 5:18 PM PST
Nautical Twilight 5:54 AM PST 5:49 PM PST
Astronomical Twilight 5:23 AM PST 6:19 PM PST
Moon 7:28 AM PST (12/3) 5:58 PM PST (12/3)
Length of Visible Light 10h 52m
Length of Day
9h 56m
New Moon, 1% of the Moon is Illuminated
Dec 3
New Moon
Dec 9
First Quarter
Dec 17
Full
Dec 25
Last Quarter
Jan 1
New

Hourly Weather History & Observations

Time (PST) Temp. Windchill Dew Point Humidity Pressure Visibility Wind Dir Wind Speed Gust Speed Precip Events Conditions
12:51 AM 55.0 °F - 52.0 °F 89% 29.96 in 7.0 mi Calm Calm - N/A   Overcast
1:51 AM 55.0 °F - 50.0 °F 83% 29.94 in 7.0 mi NW 4.6 mph - N/A   Overcast
2:51 AM 53.1 °F - 50.0 °F 89% 29.93 in 6.0 mi NW 5.8 mph - N/A   Overcast
3:30 AM 53.6 °F - 48.2 °F 82% 29.92 in 6.0 mi North 3.5 mph - N/A   Overcast
3:51 AM 52.0 °F - 46.0 °F 80% 29.92 in 9.0 mi Calm Calm - N/A   Overcast
4:35 AM 51.8 °F - 48.2 °F 88% 29.91 in 1.8 mi NNW 3.5 mph - N/A   Overcast
4:39 AM 51.8 °F - 48.2 °F 88% 29.91 in 0.8 mi North 3.5 mph - N/A   Overcast
4:49 AM 51.8 °F - 50.0 °F 94% 29.91 in 0.2 mi Calm Calm - N/A Fog Fog
4:51 AM 52.0 °F - 50.0 °F 93% 29.92 in 0.2 mi Calm Calm - N/A Fog Fog
5:08 AM 51.8 °F - 48.2 °F 88% 29.91 in 0.8 mi East 3.5 mph - N/A   Mist
5:15 AM 51.8 °F - 48.2 °F 88% 29.91 in 1.5 mi East 4.6 mph - N/A   Overcast
5:18 AM 51.8 °F - 48.2 °F 88% 29.91 in 3.0 mi East 4.6 mph - N/A   Overcast
5:31 AM 51.8 °F - 48.2 °F 88% 29.91 in 1.8 mi NE 4.6 mph - N/A   Overcast
5:48 AM 51.8 °F - 48.2 °F 88% 29.91 in 2.5 mi NE 3.5 mph - N/A   Overcast
5:51 AM 52.0 °F - 48.9 °F 89% 29.92 in 1.0 mi NNE 3.5 mph - N/A   Overcast
6:51 AM 51.1 °F - 48.9 °F 92% 29.91 in 0.5 mi Calm Calm - N/A Fog Fog
7:48 AM 50.0 °F - 48.2 °F 94% 29.91 in 0.2 mi Calm Calm - N/A Fog Fog
7:51 AM 50.0 °F - 48.0 °F 93% 29.92 in 0.2 mi Calm Calm - N/A Fog Fog
8:09 AM 51.8 °F - 48.2 °F 88% 29.91 in 7.0 mi Calm Calm - N/A   Scattered Clouds
8:51 AM 55.0 °F - 46.9 °F 74% 29.92 in 10.0 mi North 3.5 mph - N/A   Scattered Clouds
9:51 AM 57.9 °F - 50.0 °F 75% 29.91 in 10.0 mi WSW 5.8 mph - N/A   Scattered Clouds
10:51 AM 63.0 °F - 48.9 °F 60% 29.90 in 10.0 mi WNW 11.5 mph - N/A   Scattered Clouds
11:51 AM 62.1 °F - 50.0 °F 65% 29.87 in 10.0 mi West 12.7 mph - N/A   Mostly Cloudy
12:51 PM 63.0 °F - 48.0 °F 58% 29.85 in 10.0 mi West 21.9 mph - N/A   Scattered Clouds
1:51 PM 62.1 °F - 44.1 °F 52% 29.82 in 10.0 mi WNW 25.3 mph 31.1 mph N/A   Scattered Clouds
2:51 PM 59.0 °F - 43.0 °F 55% 29.82 in 10.0 mi WNW 24.2 mph 32.2 mph N/A   Mostly Cloudy
3:51 PM 57.0 °F - 41.0 °F 55% 29.83 in 10.0 mi WNW 20.7 mph 27.6 mph N/A   Mostly Cloudy
4:51 PM 54.0 °F - 39.9 °F 59% 29.83 in 10.0 mi WNW 18.4 mph - N/A   Mostly Cloudy
5:51 PM 54.0 °F - 39.9 °F 59% 29.82 in 10.0 mi WNW 19.6 mph - N/A   Mostly Cloudy
6:51 PM 53.1 °F - 39.9 °F 61% 29.83 in 10.0 mi NW 9.2 mph - N/A   Overcast
7:51 PM 50.0 °F - 39.9 °F 68% 29.84 in 10.0 mi NW 8.1 mph - N/A   Mostly Cloudy
8:51 PM 51.1 °F - 37.9 °F 61% 29.87 in 10.0 mi NNW 9.2 mph - N/A   Scattered Clouds
9:51 PM 50.0 °F - 37.0 °F 61% 29.88 in 10.0 mi North 9.2 mph - N/A   Clear
10:51 PM 48.9 °F - 32.0 °F 52% 29.89 in 10.0 mi North 10.4 mph - N/A   Clear
11:51 PM 39.9 °F 34.5 °F 32.0 °F 73% 29.91 in 10.0 mi WNW 8.1 mph - N/A   Clear